sat.trackr.live / text

‹ back to catalog

STARLINK-37126

NORAD 68520 · 2026-068N

PAYLOAD ACTIVE UNKNOWN

§ Identity

Operator
Country
US
Launch date
2026-03-30
Launch site
AFETR
Launch vehicle
Mass (kg)
RCS (m²)

Purposes: comms

External: N2YO · Heavens-Above · Gunter

§ Orbital elements

Epoch: 2026-05-25T02:35:17.021760Z

Period
93.85 min
Inclination
53.1589°
Eccentricity
0.0001134
Mean motion
15.34412112 rev/d
Perigee alt
461.9 km
Apogee alt
463.4 km
Semi-major
6,840.8 km
B*
8.8807e-4
RAAN
132.9780°
Arg perigee
98.4100°
Mean anomaly
261.7031°
Rev number
866

§ Raw data

STARLINK-371261 68520U 26068N   26145.10783590  .00029759  00000+0  88807-3 0  99992 68520  53.1589 132.9780 0001134  98.4100 261.7031 15.34412112  8669

JSON: /api/v1/satellites/68520 · /tle

For live sub-satellite position, see the globe view (requires WebGL).

§ Visibility from observer

Set your observer location to see the next 7 days of passes ≥ 10°. The values pass through the URL so the page stays shareable.

No JS? Fill the form by hand. The geolocation button needs JavaScript.